SCP
0 0 -0 -0 -0 -0 -0 -0 -0 -0 -0 -0 0 -0 -0 -0 -0 -0 -0 -0 -0 -0 -0 -0 0 0 0 0 0 0 0 0 0
0 -0 -0 -0 -0 -0 -0 -0 -0 -0 -0 -0 0 0 -0 -0 -0 -0 -0 -0 -0 -0 -0 -0 0 0 0 0 0 0 0 -0 -0
-0 -0 -0 -0 0 -0 -0 -0 -0 -0 -0 -0 0 -0 -0 -0 -0 -0 -0 0 -0 -0 -0 -0 -0 0 0 0 0 0 -0 -0 -0
0 0 0 0 0 0 -0 0 -0 -0 -0 -0 -0 -0 -0 -0 -0 -0 -0 -0 -0 -0 -0 -0 -0 -0 0 0 -0 0 0 -0 -0
0 0 0 -0 -0 -0 -0 -0 -0 -1 -0 -0 -0 -0 -0 -0 0 0 0 -0 -0 -0 -0 0 -0 0 0 0 -0 -0 -0 -0 -0
0 0 -0 0 0 -0 0 0 -0 -1 -1 -1 -0 -0 -0 0 0 0 0 0 0 0 0 0 0 0 0 0 0 0 -0 -0 -0
1 0 0 0 -0 -0 -0 -0 -0 -0 0 0 0 0 0 0 1 1 1 1 1 0 0 0 0 0 0 0 0 0 0 0 0
0 -0 0 0 -0 -0 0 0 0 0 0 1 1 1 1 0 1 1 1 2 1 1 1 1 1 1 0 0 0 0 0 0 0
1 0 0 0 0 0 0 0 0 0 0 0 1 2 1 1 1 1 1 2 2 2 1 1 1 1 1 0 0 0 0 0 0
1 0 -0 0 -0 -0 0 0 0 0 0 0 0 1 1 1 1 1 1 2 2 1 1 2 1 2 1 1 1 0 0 0 0
0 0 -0 0 0 0 0 0 0 0 0 0 0 1 1 0 1 1 1 1 1 1 2 1 2 2 1 1 1 0 0 0 0
0 -0 -0 0 0 0 0 0 -0 -0 -0 -0 0 0 1 0 1 1 1 2 1 1 2 2 2 2 2 1 1 0 0 0 0
-0 0 0 0 0 1 0 0 0 0 0 0 0 0 0 1 0 1 1 1 1 1 1 1 2 2 1 1 1 0 0 0 0
0 0 0 0 1 1 0 0 0 0 0 0 0 0 0 0 0 0 1 1 1 1 1 1 1 1 1 1 0 0 0 0 0
0 0 0 0 0 0 0 0 1 1 0 1 1 1 0 0 0 0 1 1 1 1 1 1 1 2 1 0 0 0 0 0 0
0 0 0 0 0 1 1 1 1 1 0 0 0 0 0 0 1 1 1 0 0 1 1 1 1 1 1 0 0 0 0 0 0
0 0 0 0 0 0 1 0 0 0 0 0 0 0 0 0 1 1 1 1 1 0 1 1 1 1 1 0 0 0 0 0 0
0 0 0 0 0 0 0 0 0 0 0 0 0 0 0 0 1 1 1 1 1 1 1 1 1 1 1 1 0 0 0 0 0
0 0 0 0 0 0 0 0 0 0 0 0 0 0 0 0 1 1 1 1 0 0 0 0 0 0 1 2 1 0 0 0 0
0 0 0 0 0 0 0 0 0 0 0 0 0 0 0 1 0 1 1 0 0 0 0 0 0 0 0 0 1 0 0 0 0
Wind_Speed_500mb
38 48 59 79 88 85 82 85 78 68 76 64 57 54 54 50 44 42 36 32 30 27 20 17 19 14 17 18 14 17 12 10 6
41 38 63 75 89 86 85 87 85 73 72 69 60 59 53 54 51 51 45 39 36 33 26 25 20 15 20 21 17 17 14 13 11
19 48 65 76 74 83 84 85 80 79 74 70 52 65 58 54 52 52 49 45 42 37 31 30 27 22 22 23 23 19 16 14 13
13 18 38 55 64 76 81 79 77 78 76 74 65 69 61 57 52 49 49 49 47 44 37 33 34 29 26 27 25 22 20 18 17
41 29 38 50 58 67 74 77 76 73 72 62 66 67 66 58 52 51 50 50 49 50 48 42 39 36 33 32 31 27 25 22 21
28 29 31 43 53 56 64 68 69 73 76 84 64 69 66 64 58 54 57 54 51 48 50 51 46 44 41 37 36 32 30 26 24
46 42 35 28 32 33 31 40 49 58 64 65 67 68 67 63 60 60 59 60 58 54 52 52 53 52 48 44 40 37 34 34 31
44 40 37 35 31 28 20 12 15 29 41 51 52 60 65 66 62 61 62 61 59 59 59 57 55 53 52 49 47 45 40 37 35
41 44 39 35 31 26 20 11 6 2 6 13 22 38 56 62 69 68 64 60 58 57 61 61 61 59 56 55 55 51 42 37 34
47 39 39 38 33 30 25 18 12 9 9 10 15 22 26 36 48 57 66 61 56 57 55 52 57 62 61 63 61 52 48 41 38
38 33 33 33 26 26 26 23 20 16 13 12 15 14 18 23 25 35 51 61 61 59 56 56 59 64 62 62 59 54 47 43 42
31 32 21 19 16 16 19 21 21 20 20 13 11 14 12 12 15 21 27 35 43 55 60 60 63 62 61 61 61 55 52 52 52
35 32 25 20 23 19 13 14 19 23 25 19 10 12 13 18 20 23 24 23 30 38 43 51 57 59 59 60 59 58 58 59 59
36 31 27 28 25 13 5 0 3 14 12 13 13 14 18 18 22 26 27 26 28 31 36 44 53 57 56 57 57 56 57 58 59
45 39 37 29 17 13 12 15 18 16 12 14 25 34 35 34 32 29 27 31 33 35 39 43 47 57 65 64 60 57 55 58 61
47 43 36 26 21 24 29 25 27 24 12 17 30 38 39 43 43 39 37 35 33 38 39 42 46 53 55 57 58 57 52 52 54
44 40 34 36 41 37 30 33 29 20 20 20 32 40 39 37 40 36 38 42 41 40 42 43 43 44 48 52 55 58 55 55 60
45 44 47 45 38 34 35 29 26 23 19 31 38 40 39 40 41 34 39 46 43 41 43 47 48 51 51 56 56 50 48 56 60
31 32 34 36 35 32 28 27 21 18 27 33 36 43 45 46 45 42 44 46 43 42 36 40 49 52 51 55 52 45 45 51 55
16 28 31 33 28 26 19 18 24 31 36 37 44 52 58 58 53 49 51 50 48 43 33 31 30 37 48 55 55 49 45 50 47
Wind_Direction_500mb
224 206 216 221 218 220 226 221 225 228 226 226 227 227 227 225 225 227 233 234 240 246 264 235 239 244 238 239 241 233 240 247 239
224 231 216 220 219 222 226 226 226 229 227 229 233 230 230 229 230 231 234 234 236 241 245 233 241 251 234 227 238 234 239 230 231
261 232 214 209 214 221 229 234 232 228 230 234 244 230 233 233 232 236 239 239 238 238 240 238 245 250 228 223 232 234 243 239 244
101 174 194 202 218 225 229 233 235 234 230 234 243 234 235 236 235 237 241 243 243 242 241 241 244 246 240 233 230 234 240 239 245
104 125 173 199 219 227 226 234 238 239 228 235 239 231 241 233 239 238 240 243 244 245 244 242 245 247 241 240 241 237 240 244 248
96 105 157 192 216 227 232 235 241 243 238 227 225 233 235 235 238 241 242 242 245 244 244 242 245 245 246 243 246 248 247 243 245
100 99 107 136 187 216 225 238 248 252 250 245 238 237 238 243 246 246 249 250 247 247 247 244 242 243 245 247 249 251 251 248 245
105 100 103 110 110 109 113 140 223 250 259 259 256 252 247 245 249 252 254 256 254 249 248 248 246 248 248 249 249 252 249 247 244
131 127 123 117 110 110 116 128 133 168 277 277 267 261 258 257 254 254 254 261 262 252 248 250 249 251 253 253 251 256 255 243 241
139 133 146 144 138 125 122 113 96 62 29 341 294 282 281 269 261 260 256 259 265 261 256 258 259 254 251 250 248 249 250 237 233
149 147 159 147 125 115 117 108 93 71 50 15 338 311 287 282 280 272 259 260 264 265 262 256 259 262 261 258 259 255 256 246 229
159 164 161 154 148 130 109 79 57 48 33 29 19 357 360 354 321 284 266 263 258 255 256 256 255 258 260 260 260 260 251 248 227
165 168 179 178 168 143 101 52 26 7 3 354 355 356 341 330 318 308 300 293 269 259 256 250 253 257 262 263 262 257 250 247 230
170 170 168 163 156 150 167 184 314 3 348 325 313 321 324 321 316 291 291 284 276 271 271 264 256 257 260 262 262 257 251 251 239
176 175 173 172 184 209 230 260 259 258 257 293 324 319 310 306 302 301 294 278 269 265 268 264 254 251 260 259 255 254 250 252 259
182 187 187 201 219 242 249 250 250 247 272 300 316 320 306 299 293 288 285 288 291 267 261 266 266 263 262 258 255 253 253 256 262
199 200 213 222 225 229 241 244 233 242 289 300 310 317 316 310 305 285 280 290 290 280 265 264 265 261 263 264 265 259 252 246 230
210 217 221 222 224 236 240 239 248 264 286 299 308 311 310 310 312 291 289 293 291 285 270 261 256 260 263 262 260 263 264 252 237
233 240 221 215 224 230 239 252 253 274 287 296 298 298 301 302 299 299 289 292 291 292 281 270 264 261 260 262 262 257 260 263 246
196 211 223 234 243 254 253 256 272 286 294 295 293 293 294 295 287 296 294 286 286 286 281 276 269 266 261 262 258 256 255 259 254
Wind_Speed_850mb
38 48 59 79 88 85 82 85 78 68 76 64 57 54 54 50 44 42 36 32 30 27 20 17 19 14 17 18 14 17 12 10 6
41 38 63 75 89 86 85 87 85 73 72 69 60 59 53 54 51 51 45 39 36 33 26 25 20 15 20 21 17 17 14 13 11
19 48 65 76 74 83 84 85 80 79 74 70 52 65 58 54 52 52 49 45 42 37 31 30 27 22 22 23 23 19 16 14 13
13 18 38 55 64 76 81 79 77 78 76 74 65 69 61 57 52 49 49 49 47 44 37 33 34 29 26 27 25 22 20 18 17
41 29 38 50 58 67 74 77 76 73 72 62 66 67 66 58 52 51 50 50 49 50 48 42 39 36 33 32 31 27 25 22 21
28 29 31 43 53 56 64 68 69 73 76 84 64 69 66 64 58 54 57 54 51 48 50 51 46 44 41 37 36 32 30 26 24
46 42 35 28 32 33 31 40 49 58 64 65 67 68 67 63 60 60 59 60 58 54 52 52 53 52 48 44 40 37 34 34 31
44 40 37 35 31 28 20 12 15 29 41 51 52 60 65 66 62 61 62 61 59 59 59 57 55 53 52 49 47 45 40 37 35
41 44 39 35 31 26 20 11 6 2 6 13 22 38 56 62 69 68 64 60 58 57 61 61 61 59 56 55 55 51 42 37 34
47 39 39 38 33 30 25 18 12 9 9 10 15 22 26 36 48 57 66 61 56 57 55 52 57 62 61 63 61 52 48 41 38
38 33 33 33 26 26 26 23 20 16 13 12 15 14 18 23 25 35 51 61 61 59 56 56 59 64 62 62 59 54 47 43 42
31 32 21 19 16 16 19 21 21 20 20 13 11 14 12 12 15 21 27 35 43 55 60 60 63 62 61 61 61 55 52 52 52
35 32 25 20 23 19 13 14 19 23 25 19 10 12 13 18 20 23 24 23 30 38 43 51 57 59 59 60 59 58 58 59 59
36 31 27 28 25 13 5 0 3 14 12 13 13 14 18 18 22 26 27 26 28 31 36 44 53 57 56 57 57 56 57 58 59
45 39 37 29 17 13 12 15 18 16 12 14 25 34 35 34 32 29 27 31 33 35 39 43 47 57 65 64 60 57 55 58 61
47 43 36 26 21 24 29 25 27 24 12 17 30 38 39 43 43 39 37 35 33 38 39 42 46 53 55 57 58 57 52 52 54
44 40 34 36 41 37 30 33 29 20 20 20 32 40 39 37 40 36 38 42 41 40 42 43 43 44 48 52 55 58 55 55 60
45 44 47 45 38 34 35 29 26 23 19 31 38 40 39 40 41 34 39 46 43 41 43 47 48 51 51 56 56 50 48 56 60
31 32 34 36 35 32 28 27 21 18 27 33 36 43 45 46 45 42 44 46 43 42 36 40 49 52 51 55 52 45 45 51 55
16 28 31 33 28 26 19 18 24 31 36 37 44 52 58 58 53 49 51 50 48 43 33 31 30 37 48 55 55 49 45 50 47
Wind_Direction_850mb
224 206 216 221 218 220 226 221 225 228 226 226 227 227 227 225 225 227 233 234 240 246 264 235 239 244 238 239 241 233 240 247 239
224 231 216 220 219 222 226 226 226 229 227 229 233 230 230 229 230 231 234 234 236 241 245 233 241 251 234 227 238 234 239 230 231
261 232 214 209 214 221 229 234 232 228 230 234 244 230 233 233 232 236 239 239 238 238 240 238 245 250 228 223 232 234 243 239 244
101 174 194 202 218 225 229 233 235 234 230 234 243 234 235 236 235 237 241 243 243 242 241 241 244 246 240 233 230 234 240 239 245
104 125 173 199 219 227 226 234 238 239 228 235 239 231 241 233 239 238 240 243 244 245 244 242 245 247 241 240 241 237 240 244 248
96 105 157 192 216 227 232 235 241 243 238 227 225 233 235 235 238 241 242 242 245 244 244 242 245 245 246 243 246 248 247 243 245
100 99 107 136 187 216 225 238 248 252 250 245 238 237 238 243 246 246 249 250 247 247 247 244 242 243 245 247 249 251 251 248 245
105 100 103 110 110 109 113 140 223 250 259 259 256 252 247 245 249 252 254 256 254 249 248 248 246 248 248 249 249 252 249 247 244
131 127 123 117 110 110 116 128 133 168 277 277 267 261 258 257 254 254 254 261 262 252 248 250 249 251 253 253 251 256 255 243 241
139 133 146 144 138 125 122 113 96 62 29 341 294 282 281 269 261 260 256 259 265 261 256 258 259 254 251 250 248 249 250 237 233
149 147 159 147 125 115 117 108 93 71 50 15 338 311 287 282 280 272 259 260 264 265 262 256 259 262 261 258 259 255 256 246 229
159 164 161 154 148 130 109 79 57 48 33 29 19 357 360 354 321 284 266 263 258 255 256 256 255 258 260 260 260 260 251 248 227
165 168 179 178 168 143 101 52 26 7 3 354 355 356 341 330 318 308 300 293 269 259 256 250 253 257 262 263 262 257 250 247 230
170 170 168 163 156 150 167 184 314 3 348 325 313 321 324 321 316 291 291 284 276 271 271 264 256 257 260 262 262 257 251 251 239
176 175 173 172 184 209 230 260 259 258 257 293 324 319 310 306 302 301 294 278 269 265 268 264 254 251 260 259 255 254 250 252 259
182 187 187 201 219 242 249 250 250 247 272 300 316 320 306 299 293 288 285 288 291 267 261 266 266 263 262 258 255 253 253 256 262
199 200 213 222 225 229 241 244 233 242 289 300 310 317 316 310 305 285 280 290 290 280 265 264 265 261 263 264 265 259 252 246 230
210 217 221 222 224 236 240 239 248 264 286 299 308 311 310 310 312 291 289 293 291 285 270 261 256 260 263 262 260 263 264 252 237
233 240 221 215 224 230 239 252 253 274 287 296 298 298 301 302 299 299 289 292 291 292 281 270 264 261 260 262 262 257 260 263 246
196 211 223 234 243 254 253 256 272 286 294 295 293 293 294 295 287 296 294 286 286 286 281 276 269 266 261 262 258 256 255 259 254